When you browse on this site, cookies collect data to enhance your experience and personalize the content and advertising you see.
Visit our Privacy Policy to learn more. By continuing to use the site, you agree to this use of cookies and data.
  • In United Kingdom
  • List of Countries
  • For 7 days
  • Water Temperature
  • Satellite Maps
  • Weather Map
  • Weather Widgets
  • user-avatar
    Login

    Hourly Weather Manaus

    Today, 24 January, Thursday

    Time Temperature Precipitation Wind Pressure Humidity
    00:00 +24°C° 0 mm 0 mps 755 mmHg 96%
    01:00 +24°C° 0 mm 0 mps 755 mmHg 96%
    02:00 +23°C° 0 mm 0 mps 754 mmHg 96%
    03:00 +23°C° 0.2 mm 0 mps 754 mmHg 96%
    04:00 +23°C° 0.2 mm 0 mps 754 mmHg 97%
    05:00 +23°C° 0.2 mm 0 mps 754 mmHg 97%
    06:00 +25°C° 0.8 mm 1 mps 755 mmHg 96%
    07:00 +26°C° 0.8 mm 1 mps 755 mmHg 94%
    08:00 +26°C° 0.8 mm 1 mps 756 mmHg 93%
    09:00 +27°C° 1.2 mm 2 mps 756 mmHg 90%
    10:00 +28°C° 1.2 mm 2 mps 756 mmHg 87%
    11:00 +29°C° 1.2 mm 3 mps 756 mmHg 84%
    12:00 +30°C° 0.6 mm 2 mps 755 mmHg 79%
    13:00 +31°C° 0.6 mm 2 mps 754 mmHg 73%
    14:00 +32°C° 0.6 mm 1 mps 753 mmHg 67%
    15:00 +32°C° 0.3 mm 1 mps 753 mmHg 70%
    16:00 +32°C° 0.3 mm 1 mps 752 mmHg 72%
    17:00 +31°C° 0.3 mm 1 mps 752 mmHg 74%
    18:00 +30°C° 1.6 mm 1 mps 752 mmHg 80%
    19:00 +26°C° 1.6 mm 0 mps 753 mmHg 87%
    20:00 +25°C° 1.6 mm 0 mps 753 mmHg 93%
    21:00 +25°C° 0 mm 0 mps 754 mmHg 93%
    22:00 +26°C° 0 mm 1 mps 755 mmHg 94%
    23:00 +26°C° 0 mm 1 mps 755 mmHg 95%

    Tomorrow, 25 January, Friday

    Time Temperature Precipitation Wind Pressure Humidity
    00:00 +26°C° 0.1 mm 1 mps 755 mmHg 95%
    01:00 +26°C° 0.1 mm 1 mps 754 mmHg 95%
    02:00 +26°C° 0.1 mm 1 mps 754 mmHg 95%
    03:00 +26°C° 1.1 mm 1 mps 754 mmHg 95%
    04:00 +26°C° 1.1 mm 1 mps 754 mmHg 95%
    05:00 +26°C° 1.1 mm 1 mps 754 mmHg 95%
    06:00 +24°C° 0.6 mm 0 mps 754 mmHg 95%
    07:00 +24°C° 0.6 mm 0 mps 755 mmHg 94%
    08:00 +24°C° 0.6 mm 0 mps 756 mmHg 94%
    09:00 +28°C° 0.1 mm 1 mps 756 mmHg 84%
    10:00 +30°C° 0.1 mm 1 mps 756 mmHg 75%
    11:00 +31°C° 0.1 mm 2 mps 756 mmHg 65%
    12:00 +34°C° 0 mm 2 mps 755 mmHg 60%
    13:00 +35°C° 0 mm 2 mps 754 mmHg 55%
    14:00 +35°C° 0 mm 1 mps 753 mmHg 50%
    15:00 +35°C° 0 mm 1 mps 752 mmHg 53%
    16:00 +34°C° 0 mm 1 mps 751 mmHg 57%
    17:00 +32°C° 0 mm 0 mps 751 mmHg 60%
    18:00 +30°C° 0 mm 0 mps 751 mmHg 66%
    19:00 +30°C° 0 mm 1 mps 752 mmHg 71%
    20:00 +29°C° 0 mm 1 mps 753 mmHg 77%
    21:00 +28°C° 0.1 mm 1 mps 753 mmHg 81%
    22:00 +28°C° 0.1 mm 1 mps 754 mmHg 84%
    23:00 +25°C° 0.1 mm 0 mps 754 mmHg 88%

    Day after tomorrow, 26 January, Saturday

    Time Temperature Precipitation Wind Pressure Humidity
    00:00 +25°C° 0.8 mm 0 mps 754 mmHg 90%
    01:00 +24°C° 0.8 mm 0 mps 753 mmHg 92%
    02:00 +26°C° 0.8 mm 1 mps 753 mmHg 95%
    03:00 +26°C° 0.2 mm 1 mps 753 mmHg 95%
    04:00 +26°C° 0.2 mm 1 mps 753 mmHg 95%
    05:00 +26°C° 0.2 mm 1 mps 753 mmHg 96%
    06:00 +26°C° 0.4 mm 1 mps 754 mmHg 95%
    07:00 +27°C° 0.4 mm 1 mps 754 mmHg 93%
    08:00 +27°C° 0.4 mm 1 mps 755 mmHg 92%
    09:00 +28°C° 1.6 mm 1 mps 755 mmHg 91%
    10:00 +29°C° 1.6 mm 2 mps 755 mmHg 89%
    11:00 +29°C° 1.6 mm 2 mps 755 mmHg 87%
    12:00 +31°C° 0.3 mm 2 mps 754 mmHg 78%
    13:00 +32°C° 0.3 mm 2 mps 753 mmHg 69%
    14:00 +33°C° 0.3 mm 1 mps 752 mmHg 60%
    15:00 +33°C° 0.4 mm 1 mps 752 mmHg 65%
    16:00 +32°C° 0.4 mm 1 mps 751 mmHg 70%
    17:00 +32°C° 0.4 mm 1 mps 751 mmHg 75%
    18:00 +30°C° 0.7 mm 1 mps 752 mmHg 81%
    19:00 +27°C° 0.7 mm 0 mps 752 mmHg 87%
    20:00 +25°C° 0.7 mm 0 mps 753 mmHg 93%
    21:00 +25°C° 0 mm 0 mps 753 mmHg 93%
    22:00 +25°C° 0 mm 0 mps 753 mmHg 93%
    23:00 +25°C° 0 mm 0 mps 754 mmHg 94%

    27 January, Sunday

    Time Temperature Precipitation Wind Pressure Humidity
    00:00 +25°C° 0 mm 0 mps 753 mmHg 94%
    01:00 +24°C° 0 mm 0 mps 753 mmHg 95%
    02:00 +24°C° 0 mm 0 mps 752 mmHg 95%
    03:00 +24°C° 0.1 mm 0 mps 752 mmHg 96%
    04:00 +26°C° 0.1 mm 1 mps 752 mmHg 96%
    05:00 +26°C° 0.1 mm 1 mps 753 mmHg 96%
    06:00 +26°C° 0 mm 1 mps 753 mmHg 95%
    07:00 +27°C° 0 mm 1 mps 754 mmHg 93%
    08:00 +28°C° 0 mm 1 mps 755 mmHg 91%
    09:00 +28°C° 1.7 mm 2 mps 755 mmHg 89%
    10:00 +29°C° 1.7 mm 2 mps 755 mmHg 87%
    11:00 +30°C° 1.7 mm 2 mps 755 mmHg 86%
    12:00 +31°C° 0.6 mm 2 mps 754 mmHg 78%
    13:00 +32°C° 0.6 mm 2 mps 753 mmHg 70%
    14:00 +34°C° 0.6 mm 2 mps 752 mmHg 63%
    15:00 +34°C° 0 mm 2 mps 751 mmHg 64%
    16:00 +34°C° 0 mm 2 mps 751 mmHg 65%
    17:00 +32°C° 0 mm 1 mps 750 mmHg 66%
    18:00 +31°C° 0 mm 1 mps 751 mmHg 72%
    19:00 +30°C° 0 mm 1 mps 752 mmHg 78%
    20:00 +28°C° 0 mm 1 mps 752 mmHg 84%
    21:00 +26°C° 0 mm 0 mps 753 mmHg 86%
    22:00 +26°C° 0 mm 0 mps 753 mmHg 87%
    23:00 +25°C° 0 mm 0 mps 753 mmHg 89%

    28 January, Monday

    Time Temperature Precipitation Wind Pressure Humidity
    00:00 +25°C° 0.3 mm 0 mps 753 mmHg 90%
    01:00 +25°C° 0.3 mm 0 mps 753 mmHg 92%
    02:00 +24°C° 0.3 mm 0 mps 752 mmHg 94%
    03:00 +24°C° 0.4 mm 0 mps 752 mmHg 94%
    04:00 +26°C° 0.4 mm 1 mps 752 mmHg 94%
    05:00 +26°C° 0.4 mm 1 mps 752 mmHg 94%
    06:00 +27°C° 0.3 mm 1 mps 753 mmHg 93%
    07:00 +27°C° 0.3 mm 2 mps 754 mmHg 91%
    08:00 +27°C° 0.3 mm 2 mps 754 mmHg 90%
    09:00 +28°C° 1.1 mm 2 mps 754 mmHg 87%
    10:00 +29°C° 1.1 mm 2 mps 754 mmHg 84%
    11:00 +30°C° 1.1 mm 3 mps 754 mmHg 81%
    12:00 +33°C° 0.2 mm 3 mps 753 mmHg 74%
    13:00 +34°C° 0.2 mm 3 mps 753 mmHg 67%
    14:00 +35°C° 0.2 mm 3 mps 752 mmHg 59%
    15:00 +34°C° 0.7 mm 2 mps 751 mmHg 68%
    16:00 +32°C° 0.7 mm 2 mps 751 mmHg 76%
    17:00 +30°C° 0.7 mm 1 mps 751 mmHg 84%
    18:00 +29°C° 0.8 mm 1 mps 751 mmHg 87%
    19:00 +28°C° 0.8 mm 1 mps 752 mmHg 90%
    20:00 +25°C° 0.8 mm 0 mps 752 mmHg 92%
    21:00 +25°C° 0 mm 0 mps 753 mmHg 92%
    22:00 +25°C° 0 mm 0 mps 753 mmHg 92%
    23:00 +25°C° 0 mm 0 mps 754 mmHg 92%

    29 January, Tuesday

    Time Temperature Precipitation Wind Pressure Humidity
    00:00 +25°C° 0.1 mm 0 mps 753 mmHg 93%
    01:00 +27°C° 0.1 mm 1 mps 753 mmHg 94%
    02:00 +27°C° 0.1 mm 1 mps 753 mmHg 94%
    03:00 +26°C° 0.6 mm 1 mps 753 mmHg 95%
    04:00 +26°C° 0.6 mm 1 mps 753 mmHg 95%
    05:00 +26°C° 0.6 mm 1 mps 753 mmHg 96%
    06:00 +26°C° 0.1 mm 1 mps 753 mmHg 93%
    07:00 +27°C° 0.1 mm 2 mps 754 mmHg 91%
    08:00 +28°C° 0.1 mm 2 mps 754 mmHg 89%
    09:00 +30°C° 0.1 mm 3 mps 754 mmHg 77%
    10:00 +33°C° 0.1 mm 3 mps 754 mmHg 66%
    11:00 +35°C° 0.1 mm 3 mps 754 mmHg 55%
    12:00 +35°C° 0 mm 3 mps 753 mmHg 55%
    13:00 +35°C° 0 mm 2 mps 752 mmHg 56%
    14:00 +35°C° 0 mm 2 mps 751 mmHg 57%
    15:00 +35°C° 0 mm 2 mps 751 mmHg 59%
    16:00 +33°C° 0 mm 1 mps 751 mmHg 60%
    17:00 +33°C° 0 mm 1 mps 750 mmHg 62%
    18:00 +32°C° 0 mm 1 mps 751 mmHg 70%
    19:00 +30°C° 0 mm 1 mps 752 mmHg 77%
    20:00 +28°C° 0 mm 1 mps 752 mmHg 84%
    21:00 +28°C° 0 mm 1 mps 753 mmHg 86%
    22:00 +27°C° 0 mm 1 mps 753 mmHg 88%
    23:00 +27°C° 0 mm 1 mps 754 mmHg 90%
    Show more